Weather History for Newport Airport, OR

Change the Weather History Date:

Friday, June 14, 2013

  Actual Average Record
Temperature  
Mean Temperature 54 °F -  
Max Temperature 60 °F 59 °F 64 °F (2000)
Min Temperature 48 °F 50 °F 39 °F (2008)
Degree Days  
Heating Degree Days 11    
Growing Degree Days 4 (Base 50)    
Moisture  
Dew Point 51 °F    
Average Humidity 86    
Maximum Humidity 100    
Minimum Humidity 72    
Precipitation  
Precipitation 0.00 in - - ()
Sea Level Pressure  
Sea Level Pressure 30.20 in    
Wind  
Wind Speed 5 mph (North)    
Max Wind Speed 21 mph    
Max Gust Speed 26 mph    
Visibility 10 miles    
Events      
Averages and records for this station are not official NWS values.
T = Trace of Precipitation, MM = Missing Value Source: NWS Daily Summary

Daily Weather History Graph

Daily Weather History Graph

Search for Another Location

Airport:

Trip Planner

Search our weather history database for the weather conditions in past years. The results will help you decide how hot, cold, wet, or windy it might be!

Date:

Astronomy

Jun. 14, 2013 Rise Set
Actual Time 5:30 AM PDT 9:02 PM PDT
Civil Twilight 4:53 AM PDT 9:39 PM PDT
Nautical Twilight 4:05 AM PDT 10:28 PM PDT
Astronomical Twilight 3:01 AM PDT 11:31 PM PDT
Moon 11:23 AM PDT (6/14) 12:00 AM PDT (6/14)
Length of Visible Light 16h 46m
Length of Day
15h 32m
Waxing Crescent, 31% of the Moon is Illuminated
Jun 14
Waxing Crescent
Jun 16
First Quarter
Jun 23
Full
Jun 29
Last Quarter
Jul 8
New

Hourly Weather History & Observations

Time (PDT) Temp. Dew Point Humidity Pressure Visibility Wind Dir Wind Speed Gust Speed Precip Events Conditions
12:15 AM 51.8 °F 50.0 °F 94% 30.34 in 10.0 mi SSE 3.5 mph - N/A   Overcast
12:35 AM 51.8 °F 50.0 °F 94% 30.34 in 10.0 mi Calm Calm - N/A   Overcast
12:55 AM 51.8 °F 50.0 °F 94% 30.34 in 10.0 mi Calm Calm - N/A   Overcast
1:15 AM 51.8 °F 51.8 °F 100% 30.33 in 10.0 mi Calm Calm - N/A   Overcast
1:35 AM 51.8 °F 51.8 °F 100% 30.33 in 10.0 mi Calm Calm - N/A   Overcast
1:55 AM 51.8 °F 51.8 °F 100% 30.32 in 10.0 mi Calm Calm - N/A   Overcast
2:15 AM 51.8 °F 51.8 °F 100% 30.32 in 10.0 mi Calm Calm - N/A   Overcast
2:35 AM 51.8 °F 51.8 °F 100% 30.32 in 10.0 mi Calm Calm - N/A   Overcast
2:55 AM 51.8 °F 51.8 °F 100% 30.31 in 10.0 mi Calm Calm - N/A   Overcast
3:15 AM 51.8 °F 51.8 °F 100% 30.31 in 10.0 mi Calm Calm - N/A   Overcast
3:35 AM 51.8 °F 51.8 °F 100% 30.30 in 10.0 mi Calm Calm - N/A   Overcast
3:55 AM 51.8 °F 51.8 °F 100% 30.30 in 10.0 mi Calm Calm - N/A   Overcast
4:15 AM 51.8 °F 50.0 °F 94% 30.29 in 10.0 mi Calm Calm - N/A   Overcast
4:35 AM 51.8 °F 50.0 °F 94% 30.29 in 10.0 mi Calm Calm - N/A   Overcast
4:55 AM 51.8 °F 50.0 °F 94% 30.29 in 7.0 mi East 3.5 mph - N/A   Overcast
5:15 AM 51.8 °F 50.0 °F 94% 30.29 in 7.0 mi East 4.6 mph - N/A   Overcast
5:35 AM 50.0 °F 50.0 °F 100% 30.29 in 10.0 mi East 4.6 mph - N/A   Overcast
5:55 AM 50.0 °F 50.0 °F 100% 30.30 in 10.0 mi Calm Calm - N/A   Overcast
6:15 AM 50.0 °F 50.0 °F 100% 30.30 in 10.0 mi Calm Calm - N/A   Overcast
6:35 AM 51.8 °F 50.0 °F 94% 30.29 in 10.0 mi East 3.5 mph - N/A   Overcast
6:55 AM 51.8 °F 50.0 °F 94% 30.29 in 10.0 mi Calm Calm - N/A   Overcast
7:15 AM 51.8 °F 50.0 °F 94% 30.29 in 10.0 mi Calm Calm - N/A   Overcast
7:35 AM 53.6 °F 51.8 °F 94% 30.28 in 10.0 mi East 4.6 mph - N/A   Mostly Cloudy
7:55 AM 53.6 °F 51.8 °F 94% - 10.0 mi NNE 3.5 mph - N/A   Scattered Clouds
8:15 AM 55.4 °F 51.8 °F 88% 30.28 in 10.0 mi East 5.8 mph - N/A   Mostly Cloudy
8:35 AM 53.6 °F 51.8 °F 94% 30.28 in 7.0 mi NE 5.8 mph - N/A   Scattered Clouds
8:55 AM 55.4 °F 51.8 °F 88% 30.28 in 10.0 mi ENE 5.8 mph - N/A   Scattered Clouds
9:15 AM 55.4 °F 51.8 °F 88% 30.27 in 10.0 mi ENE 5.8 mph - N/A   Scattered Clouds
9:35 AM 59.0 °F 51.8 °F 77% 30.27 in 10.0 mi East 4.6 mph - N/A   Scattered Clouds
9:55 AM 59.0 °F 51.8 °F 77% 30.27 in 10.0 mi NE 4.6 mph - N/A   Scattered Clouds
10:15 AM 59.0 °F 51.8 °F 77% 30.26 in 10.0 mi NNE 4.6 mph - N/A   Clear
10:35 AM 59.0 °F 53.6 °F 82% 30.25 in 10.0 mi NNW 9.2 mph - N/A   Clear
10:55 AM 57.2 °F 51.8 °F 82% 30.25 in 10.0 mi NW 8.1 mph - N/A   Scattered Clouds
11:15 AM 59.0 °F 51.8 °F 77% 30.24 in 10.0 mi NW 11.5 mph - N/A   Mostly Cloudy
11:35 AM 59.0 °F 51.8 °F 77% 30.24 in 10.0 mi NNW 11.5 mph - N/A   Scattered Clouds
11:55 AM 60.8 °F 51.8 °F 72% 30.23 in 10.0 mi NNW 11.5 mph - N/A   Clear
12:15 PM 59.0 °F 51.8 °F 77% 30.23 in 10.0 mi NNW 15.0 mph - N/A   Scattered Clouds
12:35 PM 60.8 °F 51.8 °F 72% 30.22 in 10.0 mi NNW 16.1 mph - N/A   Scattered Clouds
12:55 PM 60.8 °F 51.8 °F 72% 30.22 in 10.0 mi NNW 13.8 mph - N/A   Clear
1:15 PM 60.8 °F 51.8 °F 72% 30.21 in 10.0 mi NNW 13.8 mph - N/A   Clear
1:35 PM 60.8 °F 53.6 °F 77% 30.20 in 10.0 mi NNW 17.3 mph - N/A   Clear
1:55 PM 60.8 °F 53.6 °F 77% 30.20 in 10.0 mi NNW 17.3 mph 23.0 mph N/A   Clear
2:15 PM 60.8 °F 51.8 °F 72% 30.19 in 10.0 mi North 17.3 mph 23.0 mph N/A   Clear
2:35 PM 60.8 °F 51.8 °F 72% 30.18 in 10.0 mi NNW 16.1 mph 24.2 mph N/A   Clear
2:55 PM 60.8 °F 51.8 °F 72% 30.17 in 10.0 mi NNW 17.3 mph 21.9 mph N/A   Clear
3:15 PM 60.8 °F 51.8 °F 72% 30.16 in 10.0 mi NNW 18.4 mph 24.2 mph N/A   Clear
3:35 PM 60.8 °F 53.6 °F 77% 30.16 in 10.0 mi North 16.1 mph 21.9 mph N/A   Clear
3:55 PM 60.8 °F 53.6 °F 77% 30.15 in 10.0 mi North 16.1 mph 23.0 mph N/A   Clear
4:15 PM 60.8 °F 51.8 °F 72% 30.14 in 10.0 mi NNW 18.4 mph 24.2 mph N/A   Clear
4:35 PM 60.8 °F 51.8 °F 72% 30.13 in 10.0 mi NNW 17.3 mph 24.2 mph N/A   Clear
4:55 PM 60.8 °F 51.8 °F 72% 30.12 in 10.0 mi North 16.1 mph 23.0 mph N/A   Clear
5:15 PM 59.0 °F 51.8 °F 77% 30.11 in 10.0 mi North 20.7 mph 26.5 mph N/A   Clear
5:35 PM 59.0 °F 51.8 °F 77% 30.10 in 10.0 mi NNW 19.6 mph 26.5 mph N/A   Clear
5:55 PM 59.0 °F 51.8 °F 77% 30.09 in 10.0 mi NNW 18.4 mph 25.3 mph N/A   Clear
6:15 PM 59.0 °F 51.8 °F 77% 30.08 in 10.0 mi North 15.0 mph 23.0 mph N/A   Clear
6:35 PM 59.0 °F 51.8 °F 77% 30.08 in 10.0 mi North 16.1 mph 26.5 mph N/A   Clear
6:55 PM 59.0 °F 51.8 °F 77% 30.07 in 10.0 mi North 19.6 mph 25.3 mph N/A   Clear
7:15 PM 59.0 °F 51.8 °F 77% 30.06 in 10.0 mi North 18.4 mph 24.2 mph N/A   Clear
7:35 PM 57.2 °F 51.8 °F 82% 30.06 in 10.0 mi North 19.6 mph 25.3 mph N/A   Clear
7:55 PM 55.4 °F 51.8 °F 88% 30.05 in 10.0 mi North 16.1 mph 20.7 mph N/A   Clear
8:15 PM 55.4 °F 51.8 °F 88% 30.05 in 10.0 mi North 11.5 mph - N/A   Clear
8:35 PM 55.4 °F 51.8 °F 88% 30.05 in 10.0 mi NNW 9.2 mph 16.1 mph N/A   Clear
8:55 PM 53.6 °F 50.0 °F 88% 30.04 in 10.0 mi North 3.5 mph - N/A   Clear
9:15 PM 53.6 °F 50.0 °F 88% 30.03 in 7.0 mi North 3.5 mph - N/A   Clear
9:35 PM 51.8 °F 50.0 °F 94% 30.03 in 10.0 mi Calm Calm - N/A   Clear
9:55 PM 51.8 °F 50.0 °F 94% 30.03 in 10.0 mi Calm Calm - N/A   Clear
10:15 PM 51.8 °F 50.0 °F 94% 30.03 in 10.0 mi Calm Calm - N/A   Clear
10:35 PM 50.0 °F 48.2 °F 94% 30.03 in 10.0 mi Calm Calm - N/A   Clear
10:55 PM 50.0 °F 46.4 °F 87% 30.03 in 10.0 mi Calm Calm - N/A   Clear
11:15 PM 48.2 °F 46.4 °F 93% 30.03 in 10.0 mi ESE 3.5 mph - N/A   Clear
11:35 PM 48.2 °F 46.4 °F 93% 30.02 in 10.0 mi East 3.5 mph - N/A   Clear
11:55 PM 48.2 °F 46.4 °F 93% 30.02 in 10.0 mi Calm Calm - N/A   Clear